EST,Max TemperatureF,Mean TemperatureF,Min TemperatureF,Max Dew PointF,MeanDew PointF,Min DewpointF,Max Humidity, Mean Humidity, Min Humidity, Max Sea Level PressureIn, Mean Sea Level PressureIn, Min Sea Level PressureIn, Max VisibilityMiles, Mean VisibilityMiles, Min VisibilityMiles, Max Wind SpeedMPH, Mean Wind SpeedMPH, Max Gust SpeedMPH,PrecipitationIn, CloudCover, Events, WindDirDegrees
2012-12-1,61,48,34,46,40,33,97,81,49,30.43,30.39,30.36,10,8,5,8,2,,0.00,0,,128
2012-12-2,62,50,37,51,45,36,97,82,56,30.43,30.36,30.31,10,8,4,7,1,,0.00,1,,127
2012-12-3,71,60,50,58,55,48,97,84,57,30.34,30.30,30.27,10,9,3,8,5,,0.00,1,,234
2012-12-4,68,57,46,60,54,46,100,91,73,30.37,30.30,30.25,10,8,1,8,1,,0.01,2,,234
2012-12-5,73,63,53,58,52,43,100,73,48,30.23,30.18,30.11,10,9,2,10,5,18,0.01,5,,308
2012-12-6,53,50,46,44,40,36,83,68,59,30.30,30.25,30.21,10,10,10,14,9,29,0.01,8,Rain,40
2012-12-7,64,55,46,62,56,41,100,92,73,30.19,30.06,29.99,10,7,1,10,6,,0.88,7,Rain,85
2012-12-8,63,59,55,57,56,55,100,94,80,30.10,30.03,29.96,10,4,0,9,4,,0.02,6,Fog-Rain,238
2012-12-9,66,62,59,63,57,55,93,82,70,30.20,30.13,30.05,10,6,0,9,1,25,0.00,3,Fog,120
2012-12-10,66,63,60,64,62,59,100,95,90,30.02,29.87,29.81,10,5,0,16,8,26,0.08,7,Fog-Rain,216
2012-12-11,70,62,53,65,61,51,100,91,65,30.12,29.90,29.79,10,6,1,12,7,18,0.72,6,Rain,249
2012-12-12,53,48,44,52,46,42,94,89,83,30.25,30.19,30.11,10,9,4,16,10,25,0.35,8,Rain,23
2012-12-13,51,47,43,45,43,39,100,87,76,30.31,30.25,30.14,10,9,5,17,12,26,0.49,6,Rain,4
2012-12-14,59,48,37,43,40,35,97,81,51,30.37,30.30,30.25,10,9,6,10,7,,0.00,0,,5
2012-12-15,61,49,37,49,44,38,100,83,62,30.28,30.22,30.12,10,10,5,8,5,,0.00,3,,27
2012-12-16,61,58,55,61,57,50,100,96,83,30.11,30.03,29.92,10,7,2,12,3,20,0.10,7,Rain,246
2012-12-17,62,60,57,61,59,56,100,96,88,29.92,29.85,29.71,10,6,2,16,8,25,0.35,8,Rain,241
2012-12-18,64,56,46,56,49,36,93,73,52,29.94,29.78,29.69,10,10,10,13,7,22,0.00,2,,263
2012-12-19,63,50,37,47,39,34,92,72,37,30.15,30.05,29.94,10,10,10,9,3,,0.00,1,,258
2012-12-20,64,52,39,60,50,38,93,80,70,30.19,30.00,29.61,10,10,5,24,8,33,0.05,3,Rain,118
2012-12-21,64,52,39,63,38,20,96,63,43,29.84,29.64,29.48,10,8,2,31,18,48,0.25,4,Rain,255
2012-12-22,48,42,35,27,23,22,70,52,36,30.13,30.01,29.84,10,10,10,16,9,26,0.00,0,,284
2012-12-23,51,39,27,43,28,16,92,59,28,30.22,30.13,30.09,10,10,10,9,4,,0.00,0,,246
2012-12-24,59,50,42,49,40,31,97,67,42,30.11,30.04,29.96,10,10,10,9,4,,0.02,2,Rain,231
2012-12-25,55,50,45,48,45,42,93,82,72,30.14,30.07,29.97,10,10,5,9,4,,0.00,2,,39
2012-12-26,64,56,48,63,54,37,96,86,64,30.06,29.68,29.49,10,6,1,24,13,41,0.91,6,Rain-Thunderstorm,179
2012-12-27,51,44,37,36,32,30,82,63,46,30.07,29.89,29.66,10,10,10,15,9,25,0.00,1,,298
2012-12-28,46,38,30,35,31,27,92,73,56,30.21,30.12,30.05,10,10,10,8,3,,0.00,1,,13
2012-12-29,53,48,44,52,44,32,100,87,63,30.00,29.75,29.63,10,7,1,15,7,26,1.05,6,Rain,338
2012-12-30,46,38,30,32,25,19,82,57,34,30.43,30.25,29.95,10,10,10,15,8,24,0.00,0,,302
2012-12-31,51,39,27,44,30,22,88,66,43,30.43,30.34,30.17,10,10,10,10,5,,0.00,1,,239